Weather History for EGQK - December, 2012

Change the Weather History Date:

Thursday, December 27, 2012

  Actual Average Record
Temperature  
Mean Temperature 34 °F -  
Max Temperature 37 °F 43 °F 53 °F (2007)
Min Temperature 31 °F 32 °F 21 °F (2000)
Degree Days  
Heating Degree Days 31    
Moisture  
Dew Point 26 °F    
Average Humidity 68    
Maximum Humidity 81    
Minimum Humidity 52    
Precipitation  
Precipitation 0.00 in 0.07 in - ()
Sea Level Pressure  
Sea Level Pressure 29.70 in    
Wind  
Wind Speed 10 mph ()    
Max Wind Speed 20 mph    
Max Gust Speed -    
Visibility 7.8 miles    
Events      
Averages and records for this station are not official NWS values.
T = Trace of Precipitation, MM = Missing Value Source: Averaged Metar Reports

Daily Weather History Graph

Daily Weather History Graph

Search for Another Location

Airport or City:

Trip Planner

Search our weather history database for the weather conditions in past years. The results will help you decide how hot, cold, wet, or windy it might be!

Date:

Astronomy

Dec. 27, 2012 Rise Set
Actual Time 8:57 AM GMT 3:33 PM GMT
Civil Twilight 8:06 AM GMT 4:24 PM GMT
Nautical Twilight 7:14 AM GMT 5:16 PM GMT
Astronomical Twilight 6:27 AM GMT 6:04 PM GMT
Moon 3:12 PM GMT (12/27) 7:50 AM GMT (12/27)
Length of Visible Light 8h 17m
Length of Day
6h 35m
Waxing Gibbous, 99% of the Moon is Illuminated
Dec 27
Waxing Gibbous
Dec 28
Full
Jan 5
Last Quarter
Jan 11
New
Jan 18
First Quarter

Hourly Weather History & Observations

Time (GMT) Temp. Windchill Dew Point Humidity Pressure Visibility Wind Dir Wind Speed Gust Speed Precip Events Conditions
12:50 AM 35.6 °F 26.2 °F 30.2 °F 81% 29.44 in 6.2 mi ENE 15.0 mph - N/A   Mostly Cloudy
1:50 AM 37.4 °F 27.2 °F 28.4 °F 70% 29.47 in 6.2 mi ENE 19.6 mph - N/A   Overcast
2:50 AM 36 °F - 27 °F 61% 29.51 in 19 mi NE 19.6 mph - -   Mostly Cloudy
2:50 AM 35.6 °F 24.8 °F 26.6 °F 70% 29.50 in 6.2 mi NE 19.6 mph - N/A   Mostly Cloudy
3:50 AM 35.6 °F 25.2 °F 26.6 °F 70% 29.50 in 6.2 mi ENE 18.4 mph - N/A   Mostly Cloudy
4:50 AM 33.8 °F 23.9 °F 26.6 °F 75% 29.53 in 6.2 mi ENE 15.0 mph - N/A   Mostly Cloudy
5:50 AM 35 °F - 26 °F 58% 29.58 in 17 mi ENE 12.7 mph - -  
5:50 AM 33.8 °F 24.8 °F 26.6 °F 75% 29.56 in 6.2 mi ENE 12.7 mph - N/A   Mostly Cloudy
6:50 AM 33.8 °F 27.7 °F 26.6 °F 75% 29.59 in 6.2 mi ENE 6.9 mph - N/A   Overcast
7:50 AM 33.8 °F 26.4 °F 23.0 °F 65% 29.62 in 6.2 mi East 9.2 mph - N/A   Overcast
8:50 AM 33.8 °F 27.7 °F 24.8 °F 70% 29.65 in 6.2 mi East 6.9 mph - N/A   Overcast
9:50 AM 33.8 °F 28.6 °F 24.8 °F 70% 29.68 in 6.2 mi East 5.8 mph - N/A   Overcast
10:50 AM 35.6 °F 32.8 °F 24.8 °F 65% 29.71 in 6.2 mi SSE 3.5 mph - N/A   Overcast
11:50 AM 35 °F - 24 °F 52% 29.75 in 16 mi South 2.3 mph - -   Overcast
11:50 AM 35.6 °F - 24.8 °F 65% 29.74 in 6.2 mi South 2.3 mph - N/A   Overcast
12:50 PM 33.8 °F - 24.8 °F 70% 29.74 in 6.2 mi South 1.2 mph - N/A   Scattered Clouds
1:50 PM 33.8 °F - 24.8 °F 70% 29.77 in 6.2 mi ESE 1.2 mph - N/A   Mostly Cloudy
2:50 PM 34 °F - 24 °F 57% 29.81 in 28 mi SSE 6.9 mph - -   Mostly Cloudy
2:50 PM 33.8 °F 27.7 °F 24.8 °F 70% 29.80 in 6.2 mi SSE 6.9 mph - N/A   Mostly Cloudy
3:50 PM 33.8 °F 28.6 °F 24.8 °F 70% 29.80 in 6.2 mi SE 5.8 mph - N/A   Overcast
4:50 PM 32.0 °F 25.6 °F 24.8 °F 75% 29.83 in 6.2 mi ESE 6.9 mph - N/A   Overcast
5:50 PM 31 °F - 24 °F 68% 29.83 in 18 mi ESE 5.8 mph - -   Overcast
5:50 PM 32.0 °F 26.4 °F 24.8 °F 75% 29.83 in 6.2 mi ESE 5.8 mph - N/A   Overcast
6:50 PM 32.0 °F 28.7 °F 24.8 °F 75% 29.83 in 6.2 mi SE 3.5 mph - N/A   Overcast
7:50 PM 35.6 °F 31.7 °F 26.6 °F 70% 29.83 in 6.2 mi SSE 4.6 mph - N/A   Overcast
8:50 PM 37 °F - 27 °F 57% 29.83 in 25 mi SSW 13.8 mph - -   Mostly Cloudy
8:50 PM 37.4 °F 28.9 °F 26.6 °F 65% 29.80 in 6.2 mi SSW 13.8 mph - N/A   Mostly Cloudy
9:50 PM 37.4 °F 31.4 °F 26.6 °F 65% 29.80 in 6.2 mi SSW 8.1 mph - N/A   Mostly Cloudy
10:50 PM 37.4 °F 31.4 °F 28.4 °F 70% 29.80 in 6.2 mi SSW 8.1 mph - N/A   Partly Cloudy
11:50 PM 36 °F - 28 °F 63% 29.81 in 28 mi SSE 5.8 mph - -  
11:50 PM 35.6 °F 30.7 °F 28.4 °F 75% 29.80 in 6.2 mi SSE 5.8 mph - N/A   Unknown